| time (UTC) | temp F | wind direction | speed MPH | gust MPH | rain 1hr in | rain 24hr in | rain mn in | humidity % | barometer mb |
| 20260504201502 | 79 | 100 | 1.0 | 9.0 | 0.00 | 0.00 | 0.00 | 31 | 1006.0 |
| 20260504200125 | 79 | 106 | 1.0 | 4.0 | 0.00 | 0.00 | 0.00 | 33 | 1006.3 |
| 20260504194602 | 79 | 106 | 3.0 | 10.0 | 0.00 | 0.00 | 0.00 | 33 | 1006.5 |
| 20260504193057 | 79 | 348 | 1.0 | 8.0 | 0.00 | 0.00 | 0.00 | 36 | 1006.6 |
| 20260504191559 | 79 | 268 | 3.0 | 7.0 | 0.00 | 0.00 | 0.00 | 33 | 1006.9 |
| 20260504190053 | 79 | 83 | 2.0 | 5.0 | 0.00 | 0.00 | 0.00 | 35 | 1007.0 |
| 20260504184550 | 78 | 79 | 1.0 | 5.0 | 0.00 | 0.00 | 0.00 | 36 | 1007.2 |
| 20260504183049 | 77 | 77 | 2.0 | 9.0 | 0.00 | 0.00 | 0.00 | 37 | 1007.2 |
| 20260504181548 | 77 | 63 | 3.0 | 8.0 | 0.00 | 0.00 | 0.00 | 36 | 1007.5 |
| 20260504180045 | 77 | 106 | 1.0 | 6.0 | 0.00 | 0.00 | 0.00 | 39 | 1007.7 |
| 20260504174545 | 77 | 112 | 2.0 | 6.0 | 0.00 | 0.00 | 0.00 | 37 | 1007.9 |
| 20260504173042 | 76 | 199 | 1.0 | 6.0 | 0.00 | 0.00 | 0.00 | 35 | 1008.0 |
| 20260504171547 | 76 | 305 | 2.0 | 5.0 | 0.00 | 0.00 | 0.00 | 39 | 1008.2 |
| 20260504081533 | 46 | 135 | 0.0 | 0.0 | 0.00 | 0.00 | 0.00 | 92 | 1009.1 |
| 20260504050018 | 49 | 152 | 0.0 | 0.0 | 0.00 | 0.00 | 0.00 | 90 | 1010.2 |
| 20260504044519 | 50 | 160 | 0.0 | 0.0 | 0.00 | 0.00 | 0.00 | 90 | 1010.2 |
| 20260504043021 | 50 | 165 | 0.0 | 0.0 | 0.00 | 0.00 | 0.00 | 90 | 1010.2 |
| 20260504041512 | 50 | 169 | 0.0 | 0.0 | 0.00 | 0.00 | 0.00 | 90 | 1010.1 |
| 20260504040011 | 50 | 164 | 0.0 | 0.0 | 0.00 | 0.00 | 0.00 | 90 | 1010.0 |
| 20260504034510 | 51 | 139 | 0.0 | 0.0 | 0.00 | 0.00 | 0.00 | 89 | 1010.0 |
| 20260504033010 | 51 | 135 | 0.0 | 0.0 | 0.00 | 0.00 | 0.00 | 89 | 1010.0 |
| 20260504031510 | 52 | 135 | 0.0 | 0.0 | 0.00 | 0.00 | 0.00 | 88 | 1010.0 |
| 20260504030011 | 52 | 135 | 0.0 | 0.0 | 0.00 | 0.00 | 0.00 | 87 | 1009.9 |
| 20260504024510 | 53 | 135 | 0.0 | 0.0 | 0.00 | 0.00 | 0.00 | 86 | 1009.8 |
| 20260504023009 | 53 | 135 | 0.0 | 0.0 | 0.00 | 0.00 | 0.00 | 84 | 1009.9 |
| 20260504021511 | 54 | 135 | 0.0 | 0.0 | 0.00 | 0.00 | 0.00 | 82 | 1009.7 |
| 20260504020013 | 55 | 135 | 0.0 | 0.0 | 0.00 | 0.00 | 0.00 | 81 | 1009.7 |
| 20260504014507 | 56 | 136 | 0.0 | 0.0 | 0.00 | 0.00 | 0.00 | 78 | 1009.6 |
| 20260504013010 | 57 | 136 | 0.0 | 0.0 | 0.00 | 0.00 | 0.00 | 75 | 1009.4 |
| 20260504011507 | 59 | 135 | 0.0 | 0.0 | 0.00 | 0.00 | 0.00 | 71 | 1008.9 |
| 20260504010005 | 60 | 166 | 0.0 | 0.0 | 0.00 | 0.00 | 0.00 | 66 | 1008.9 |
| 20260504004504 | 62 | 167 | 0.0 | 0.0 | 0.00 | 0.00 | 0.00 | 61 | 1008.8 |
| 20260504003003 | 64 | 134 | 0.0 | 0.0 | 0.00 | 0.00 | 0.00 | 57 | 1008.5 |
| 20260504001503 | 66 | 134 | 0.0 | 0.0 | 0.00 | 0.00 | 0.00 | 54 | 1008.3 |
| 20260504000002 | 68 | 135 | 0.0 | 0.0 | 0.00 | 0.00 | 0.00 | 48 | 1008.5 |
| 20260503234502 | 70 | 354 | 0.0 | 2.0 | 0.00 | 0.00 | 0.00 | 41 | 1008.3 |
| 20260503233003 | 71 | 354 | 0.0 | 2.0 | 0.00 | 0.00 | 0.00 | 39 | 1008.4 |
| 20260503231600 | 72 | 354 | 0.0 | 2.0 | 0.00 | 0.00 | 0.00 | 36 | 1008.4 |
| 20260503224558 | 74 | 359 | 1.0 | 7.0 | 0.00 | 0.00 | 0.00 | 33 | 1008.5 |
| 20260503223058 | 75 | 37 | 1.0 | 4.0 | 0.00 | 0.00 | 0.00 | 32 | 1008.5 |
| 20260503221601 | 75 | 302 | 1.0 | 9.0 | 0.00 | 0.00 | 0.00 | 31 | 1008.5 |
| 20260503220056 | 75 | 285 | 1.0 | 5.0 | 0.00 | 0.00 | 0.00 | 31 | 1008.5 |
| 20260503214602 | 75 | 41 | 2.0 | 7.0 | 0.00 | 0.00 | 0.00 | 31 | 1008.5 |
| 20260503213054 | 76 | 320 | 2.0 | 5.0 | 0.00 | 0.00 | 0.00 | 31 | 1008.6 |
| 20260503211555 | 75 | 313 | 1.0 | 4.0 | 0.00 | 0.00 | 0.00 | 32 | 1008.7 |
| 20260503210053 | 75 | 303 | 2.0 | 8.0 | 0.00 | 0.00 | 0.00 | 31 | 1008.6 |
| 20260503204557 | 75 | 310 | 3.0 | 11.0 | 0.00 | 0.00 | 0.00 | 30 | 1008.9 |
| 20260503203052 | 76 | 68 | 2.0 | 5.0 | 0.00 | 0.00 | 0.00 | 32 | 1008.9 |